Regional Weather Roundup
Issued by NWS

Home | Current Version | Previous Version | Graphics & Text | Print | Product List | Glossary On
Versions: 1 2 3 4 5 6 7 8 9 10 11 12 13 14 15 16 17 18 19 20 21 22 23 24 25 26 27 28 29 30 31 32 33 34 35 36 37 38 39 40 41 42 43 44 45 46 47 48 49 50
000
ASUS43 KDMX 010507
RWRIA

WEATHER ROUNDUP FOR IOWA
NATIONAL WEATHER SERVICE DES MOINES IA
1200 AM CDT TUE SEP 01 2015

NOTE: "FAIR" INDICATES FEW OR NO CLOUDS BELOW 12,000 FEET WITH NO
SIGNIFICANT WEATHER AND/OR OBSTRUCTIONS TO VISIBILITY.

* - THESE STATIONS ARE NOT NWS STATIONS...THUS NOT UNDER NWS
QUALITY CONTROL.  THEY ALSO DO NOT REPORT WEATHER SUCH
AS PRECIPITATION OR FOG.

IAZ001>003-012>014-020>022-031>034-043>046-010600-
   NORTHWEST IOWA

CITY           SKY/WX    TMP DP  RH WIND       PRES   REMARKS
CARROLL *      CLOUDY    64  64 100 CALM      29.95S FOG
CHEROKEE *     CLEAR     68  68 100 CALM      29.94S
DENISON *      CLOUDY    70  66  88 CALM      29.93R
LE MARS *      CLEAR     70  68  94 S5        29.93S
ORANGE CITY *  CLEAR     70  66  88 S3        29.94S
SHELDON *      PTCLDY    68  66  94 S5        29.93R
SIOUX CITY     CLEAR     70  65  84 E7        29.91S
SPENCER        CLEAR     66  62  87 S5        29.95R FOG
STORM LAKE *   CLEAR     66  66 100 S8        29.96S
$$

IAZ055>058-069>071-079>083-090>094-010600-
   SOUTHWEST IOWA

CITY           SKY/WX    TMP DP  RH WIND       PRES   REMARKS
ATLANTIC *     CLOUDY    72  68  88 SW3       29.96R
AUDUBON *      CLEAR     63  61  94 CALM      29.97S
CLARINDA *     CLEAR     68  68 100 CALM      29.97S FOG
COUNCIL BLFS *   N/A     73  70  88 S9        29.94S
CRESTON *      CLEAR     72  68  88 S8        29.99R
LAMONI         CLEAR     74  68  81 S7        29.98S
RED OAK *      CLEAR     70  70 100 CALM      29.95S
SHENANDOAH *   CLEAR     73  70  88 CALM      29.95S
$$

IAZ047>049-059>061-072>074-084-010600-
   CENTRAL IOWA

CITY           SKY/WX    TMP DP  RH WIND       PRES   REMARKS
AMES           CLEAR     67  66  97 CALM      29.96R FOG
ANKENY *       PTCLDY    70  70 100 CALM      29.95S FOG
CHARITON *     CLEAR     72  70  94 S7        29.98S
DES MOINES     PTCLDY    75  70  84 S6        29.95S
GRINNELL*      CLEAR     72  68  88 S6        29.99R
KNOXVILLE *    PTCLDY    73  68  83 S7        29.96S
MARSHALLTOWN   PTCLDY    71  69  93 SE5       29.96S
PELLA *        CLEAR     73  73 100 CALM      29.98S
PERRY *          N/A     70  68  94 S5        29.96R FOG
$$

IAZ004>006-015-016-023>025-035-036-010600-
   NORTH CENTRAL IOWA

CITY           SKY/WX    TMP DP  RH WIND       PRES   REMARKS
ALGONA *       CLOUDY    68  66  94 S7        29.95S
CLARION *      FOG       68  66  94 S6        29.96S VSB 1
ESTHERVILLE    CLEAR     64  63  96 S5        29.95R
FORT DODGE *   CLEAR     64  63  94 CALM      29.96S
MASON CITY     FOG       67  67 100 S6        29.97S VSB 1/4
FOREST CITY *  CLEAR     64  64 100 S5        29.96S FOG
IOWA FALLS *     N/A     70  68  94 S5        29.98R FOG
$$

IAZ007>011-017>019-026>030-037>042-050>054-066-010600-
   NORTHEAST IOWA

CITY           SKY/WX    TMP DP  RH WIND       PRES   REMARKS
CEDAR RAPIDS   CLEAR     73  73 100 S6        29.98R
CHARLES CITY * PTCLDY    73  73 100 S6        29.97S FOG
CLINTON *      CLEAR     73  72  94 S8        30.03R
DECORAH *      CLOUDY    73  72  94 S7        29.97S
DUBUQUE        CLEAR     74  71  91 SE10      30.01S
MONTICELLO *   PTCLDY    73  72  94 SE5       29.99R
OELWEIN *      CLOUDY    73  72  94 S6        29.99R
WATERLOO       MOCLDY    73  71  93 S3        29.96R
$$

IAZ064-065-067-068-078-010600-
   EAST CENTRAL IOWA

CITY           SKY/WX    TMP DP  RH WIND       PRES   REMARKS
DAVENPORT      PTCLDY    75  71  87 S8        30.01R
IOWA CITY      CLEAR     74  71  91 CALM      29.99R
MT. PLEASANT * CLEAR     75  70  83 CALM      30.00R
MUSCATINE *    CLEAR     75  70  83 CALM      29.99S
QUAD CITIES    CLEAR     76  70  82 S8        30.00R
$$

IAZ062-063-075>077-085>089-095>099-010600-
   SOUTHEAST IOWA

CITY           SKY/WX    TMP DP  RH WIND       PRES   REMARKS
BURLINGTON     CLEAR     76  73  91 S6        30.00R
FAIRFIELD *    CLEAR     73  68  83 S6        29.99S
FORT MADISON * CLEAR     75  73  94 S6        30.01R
KEOKUK *       CLEAR     77  72  83 S6        29.99S
OSKALOOSA *      N/A     70  68  94 S5        29.99R
CENTERVILLE *  CLEAR     68  66  94 S5        30.01R
OTTUMWA        CLEAR     72  69  90 S6        29.97R
WASHINGTON *     N/A    N/A N/A N/A MISG        N/A
$$

ABBREVIATIONS USED IN REMARKS
   TC - TEMPERATURES IN CELSIUS
  WCI - WIND CHILL INDEX
   HX - HEAT INDEX
  VSB - VISIBILITY
$$



USA.gov is the U.S. government's official web portal to all federal, state and local government web resources and services.